UAL422 KDEN-KEWR

Flight info

Callsign UAL422
Flight time N/A
Altitude 35000
Route CHUWY1 CHUWY ONL DSM EVOTE NELLS KEEHO J584 SLT FQM3
Aircraft B77W/H-SDE1E2E3FGHIJ2J3J4J5M1RWXY/LB1D1

Departure

Time 2026-05-04 17:57
Airport Denver International Airport (KDEN)

Arrival

Time N/A
Airport Newark Liberty International Airport (KEWR)
Time Latitude Longitude Altitude Speed Heading
2026-05-04 17:35 39.85946 -104.67135 5384 ft 0 kts 181°
2026-05-04 17:45 39.85952 -104.67135 5385 ft 2 kts 181°
2026-05-04 17:45 39.85967 -104.67135 5386 ft 3 kts 185°
2026-05-04 17:45 39.85984 -104.67131 5386 ft 3 kts 206°
2026-05-04 17:45 39.85996 -104.67122 5388 ft 3 kts 238°
2026-05-04 17:46 39.86001 -104.67106 5386 ft 3 kts 268°
2026-05-04 17:46 39.86001 -104.67080 5383 ft 3 kts 274°
2026-05-04 17:46 39.86000 -104.67062 5384 ft 1 kts 270°
2026-05-04 17:49 39.86000 -104.67066 5384 ft 4 kts 270°
2026-05-04 17:50 39.86000 -104.67167 5386 ft 14 kts 270°
2026-05-04 17:50 39.86000 -104.67290 5391 ft 14 kts 270°
2026-05-04 17:50 39.86000 -104.67418 5391 ft 15 kts 270°
2026-05-04 17:50 39.86001 -104.67553 5391 ft 15 kts 271°
2026-05-04 17:51 39.86004 -104.67687 5391 ft 15 kts 271°
2026-05-04 17:51 39.86007 -104.67822 5387 ft 15 kts 271°
2026-05-04 17:51 39.86018 -104.67955 5391 ft 15 kts 280°
2026-05-04 17:51 39.86030 -104.68089 5391 ft 15 kts 272°
2026-05-04 17:52 39.86032 -104.68224 5388 ft 15 kts 271°
2026-05-04 17:52 39.86034 -104.68395 5370 ft 23 kts 271°
2026-05-04 17:52 39.85979 -104.68510 5368 ft 15 kts 191°
2026-05-04 17:52 39.85874 -104.68512 5370 ft 15 kts 181°
2026-05-04 17:53 39.85769 -104.68515 5372 ft 15 kts 181°
2026-05-04 17:53 39.85664 -104.68517 5374 ft 15 kts 181°
2026-05-04 17:53 39.85559 -104.68520 5375 ft 15 kts 181°
2026-05-04 17:53 39.85454 -104.68522 5376 ft 15 kts 181°
2026-05-04 17:54 39.85349 -104.68523 5376 ft 15 kts 179°
2026-05-04 17:54 39.85245 -104.68533 5371 ft 15 kts 204°
2026-05-04 17:54 39.85203 -104.68657 5368 ft 16 kts 265°
2026-05-04 17:54 39.85197 -104.68801 5363 ft 16 kts 267°
2026-05-04 17:55 39.85192 -104.68945 5359 ft 16 kts 267°
2026-05-04 17:55 39.85191 -104.69093 5354 ft 17 kts 271°
2026-05-04 17:55 39.85198 -104.69250 5351 ft 18 kts 272°
2026-05-04 17:55 39.85203 -104.69409 5346 ft 18 kts 272°
2026-05-04 17:56 39.85202 -104.69569 5342 ft 16 kts 269°
2026-05-04 17:56 39.85205 -104.69639 5341 ft 6 kts 291°
2026-05-04 17:56 39.85241 -104.69656 5341 ft 0 kts 355°
2026-05-04 17:56 39.85245 -104.69656 5341 ft 6 kts 355°
2026-05-04 17:57 39.85540 -104.69657 5345 ft 84 kts
2026-05-04 17:57 39.86415 -104.69647 5338 ft 166 kts
2026-05-04 17:57 39.87786 -104.69635 5624 ft 216 kts 359°
2026-05-04 17:57 39.89395 -104.69592 6333 ft 242 kts 360°
2026-05-04 17:58 39.91097 -104.69538 7436 ft 251 kts 358°
2026-05-04 17:58 39.92869 -104.69509 8651 ft 258 kts 359°
2026-05-04 17:58 39.94677 -104.69477 9882 ft 264 kts 359°
2026-05-04 17:58 39.96540 -104.69438 10984 ft 270 kts 359°
2026-05-04 17:59 39.98444 -104.69398 11915 ft 276 kts 359°
2026-05-04 17:59 40.00386 -104.69357 12549 ft 285 kts 359°
2026-05-04 17:59 40.04596 -104.68721 12923 ft 334 kts 25°
2026-05-04 18:00 40.06648 -104.67111 13113 ft 356 kts 31°
2026-05-04 18:00 40.08787 -104.65275 13284 ft 380 kts 32°
2026-05-04 18:00 40.11059 -104.63328 13642 ft 398 kts 32°
2026-05-04 18:00 40.13412 -104.61314 14218 ft 408 kts 32°
2026-05-04 18:01 40.15816 -104.59263 14867 ft 416 kts 31°
2026-05-04 18:01 40.18263 -104.57186 15574 ft 421 kts 31°
2026-05-04 18:01 40.20710 -104.55116 16282 ft 427 kts 31°
2026-05-04 18:02 40.25769 -104.50845 17614 ft 439 kts 31°
2026-05-04 18:02 40.28363 -104.48654 18242 ft 446 kts 31°
2026-05-04 18:02 40.30986 -104.46436 18858 ft 450 kts 31°
2026-05-04 18:02 40.33624 -104.44204 19518 ft 453 kts 31°
2026-05-04 18:03 40.36278 -104.41955 20152 ft 457 kts 30°
2026-05-04 18:03 40.38961 -104.39678 20756 ft 461 kts 30°
2026-05-04 18:03 40.41667 -104.37382 21306 ft 466 kts 30°
2026-05-04 18:03 40.44406 -104.35056 21864 ft 470 kts 30°
2026-05-04 18:04 40.47164 -104.32710 22404 ft 474 kts 30°
2026-05-04 18:04 40.49906 -104.30374 22893 ft 479 kts 30°
2026-05-04 18:04 40.55551 -104.25560 23759 ft 488 kts 30°
2026-05-04 18:05 40.58360 -104.23024 24150 ft 493 kts 36°
2026-05-04 18:05 40.60869 -104.19886 24503 ft 501 kts 44°
2026-05-04 18:05 40.61647 -104.18775 24626 ft 503 kts 45°
2026-05-04 18:06 40.65600 -104.12848 25213 ft 511 kts 46°
2026-05-04 18:06 40.67942 -104.09308 25559 ft 514 kts 45°
2026-05-04 18:06 40.70331 -104.05761 25883 ft 518 kts 45°
2026-05-04 18:07 40.72719 -104.02276 26195 ft 521 kts 44°
2026-05-04 18:07 40.75206 -103.98690 26485 ft 524 kts 44°
2026-05-04 18:07 40.77655 -103.95180 26750 ft 527 kts 44°
2026-05-04 18:07 40.80150 -103.91612 27020 ft 530 kts 44°
2026-05-04 18:08 40.82665 -103.88010 27263 ft 534 kts 44°
2026-05-04 18:08 40.85168 -103.84376 27483 ft 536 kts 46°
2026-05-04 18:08 40.87325 -103.80324 27654 ft 545 kts 58°
2026-05-04 18:08 40.88908 -103.75744 27895 ft 551 kts 68°
2026-05-04 18:09 40.90563 -103.65830 28281 ft 556 kts 82°
2026-05-04 18:09 40.91458 -103.55684 28684 ft 560 kts 83°
2026-05-04 18:10 40.91898 -103.50570 28974 ft 560 kts 83°
2026-05-04 18:10 40.92350 -103.45460 29268 ft 559 kts 82°
2026-05-04 18:10 40.92817 -103.40352 29533 ft 560 kts 82°
2026-05-04 18:10 40.93296 -103.35240 29816 ft 560 kts 82°
2026-05-04 18:11 40.93780 -103.30130 30072 ft 560 kts 82°
2026-05-04 18:11 40.94266 -103.25009 30354 ft 560 kts 82°
2026-05-04 18:11 40.94747 -103.19914 30646 ft 559 kts 82°
2026-05-04 18:11 40.95226 -103.14815 30927 ft 558 kts 82°
2026-05-04 18:12 40.95700 -103.09719 31203 ft 557 kts 82°
2026-05-04 18:12 40.96170 -103.04632 31475 ft 557 kts 82°
2026-05-04 18:12 40.96636 -102.99559 31727 ft 556 kts 82°
2026-05-04 18:12 40.97100 -102.94470 31988 ft 556 kts 82°
2026-05-04 18:13 40.97555 -102.89456 32241 ft 555 kts 82°
2026-05-04 18:13 40.98013 -102.84395 32485 ft 554 kts 82°
2026-05-04 18:13 40.98922 -102.74260 32740 ft 556 kts 82°
2026-05-04 18:14 40.99375 -102.69174 32754 ft 555 kts 82°
2026-05-04 18:14 41.00268 -102.59067 32717 ft 551 kts 82°
2026-05-04 18:15 41.02020 -102.38932 32700 ft 549 kts 82°
2026-05-04 18:16 41.02880 -102.28895 32706 ft 548 kts 82°
2026-05-04 18:16 41.03726 -102.18929 32725 ft 548 kts 82°
2026-05-04 18:17 41.04985 -102.03880 32785 ft 547 kts 82°
2026-05-04 18:18 41.06225 -101.88828 32823 ft 547 kts 83°
2026-05-04 18:18 41.07040 -101.78790 32823 ft 548 kts 83°
2026-05-04 18:19 41.08248 -101.63731 32822 ft 548 kts 83°
2026-05-04 18:19 41.09037 -101.53744 32794 ft 548 kts 83°
2026-05-04 18:20 41.09824 -101.43670 32769 ft 549 kts 83°
2026-05-04 18:20 41.10602 -101.33600 32745 ft 549 kts 83°
2026-05-04 18:21 41.11372 -101.23520 32735 ft 550 kts 83°
2026-05-04 18:21 41.12131 -101.13473 32741 ft 550 kts 83°
2026-05-04 18:22 41.12884 -101.03368 32759 ft 551 kts 83°
2026-05-04 18:22 41.13630 -100.93245 32779 ft 551 kts 83°
2026-05-04 18:23 41.14368 -100.83107 32805 ft 551 kts 83°
2026-05-04 18:23 41.15099 -100.72966 32801 ft 552 kts 83°
2026-05-04 18:24 41.15697 -100.64541 32808 ft 552 kts 83°
2026-05-04 18:24 41.16408 -100.54411 32799 ft 552 kts 83°
2026-05-04 18:25 41.17226 -100.42625 32781 ft 551 kts 83°
2026-05-04 18:25 41.17918 -100.32494 32759 ft 551 kts 83°
2026-05-04 18:26 41.18492 -100.23997 32745 ft 551 kts 84°
2026-05-04 18:26 41.19168 -100.13869 32735 ft 551 kts 84°
2026-05-04 18:27 41.19835 -100.03733 32734 ft 551 kts 84°
2026-05-04 18:27 41.20494 -99.93582 32749 ft 552 kts 84°
2026-05-04 18:28 41.21141 -99.83483 32758 ft 552 kts 84°
2026-05-04 18:28 41.21783 -99.73316 32767 ft 553 kts 84°
2026-05-04 18:29 41.22420 -99.63071 32766 ft 553 kts 84°
2026-05-04 18:29 41.23040 -99.52969 32775 ft 552 kts 84°
2026-05-04 18:30 41.23962 -99.37681 32764 ft 553 kts 84°
2026-05-04 18:31 41.24565 -99.27480 32738 ft 553 kts 84°
2026-05-04 18:31 41.25160 -99.17267 32735 ft 554 kts 84°
2026-05-04 18:32 41.25742 -99.07129 32730 ft 554 kts 84°
2026-05-04 18:32 41.26319 -98.96900 32728 ft 554 kts 84°
2026-05-04 18:33 41.26887 -98.86684 32740 ft 554 kts 84°
2026-05-04 18:33 41.27447 -98.76446 32733 ft 555 kts 85°
2026-05-04 18:34 41.27997 -98.66223 32732 ft 555 kts 85°
2026-05-04 18:34 41.28538 -98.55995 32727 ft 555 kts 85°
2026-05-04 18:35 41.29068 -98.45803 32734 ft 555 kts 85°
2026-05-04 18:35 41.29590 -98.35571 32730 ft 555 kts 85°
2026-05-04 18:36 41.30105 -98.25325 32725 ft 555 kts 85°
2026-05-04 18:36 41.30611 -98.15082 32725 ft 555 kts 85°
2026-05-04 18:37 41.31107 -98.04834 32719 ft 554 kts 85°
2026-05-04 18:37 41.31592 -97.94601 32721 ft 554 kts 85°
2026-05-04 18:38 41.32070 -97.84368 32723 ft 554 kts 85°
2026-05-04 18:38 41.32536 -97.74198 32723 ft 553 kts 85°
2026-05-04 18:39 41.32994 -97.63979 32741 ft 553 kts 85°
2026-05-04 18:39 41.33443 -97.53777 32745 ft 552 kts 86°
2026-05-04 18:40 41.33882 -97.43572 32754 ft 552 kts 86°
2026-05-04 18:40 41.34313 -97.33365 32754 ft 552 kts 86°
2026-05-04 18:41 41.34733 -97.23202 32752 ft 551 kts 86°
2026-05-04 18:41 41.35144 -97.13027 32738 ft 551 kts 86°
2026-05-04 18:42 41.35547 -97.02842 32728 ft 550 kts 86°
2026-05-04 18:42 41.35941 -96.92660 32704 ft 550 kts 86°
2026-05-04 18:43 41.36324 -96.82488 32698 ft 550 kts 86°
2026-05-04 18:43 41.36698 -96.72382 32704 ft 549 kts 86°
2026-05-04 18:44 41.37063 -96.62228 32720 ft 549 kts 86°
2026-05-04 18:44 41.37419 -96.52085 32719 ft 548 kts 86°
2026-05-04 18:45 41.37767 -96.41932 32713 ft 548 kts 86°
2026-05-04 18:45 41.38104 -96.31795 32708 ft 547 kts 86°
2026-05-04 18:46 41.38432 -96.21730 32706 ft 547 kts 87°
2026-05-04 18:46 41.38752 -96.11591 32709 ft 547 kts 87°
2026-05-04 18:47 41.39064 -96.01464 32700 ft 547 kts 87°
2026-05-04 18:47 41.39364 -95.91390 32685 ft 547 kts 87°
2026-05-04 18:48 41.39658 -95.81258 32693 ft 546 kts 87°
2026-05-04 18:48 41.39942 -95.71143 32674 ft 546 kts 87°
2026-05-04 18:49 41.40217 -95.61015 32668 ft 546 kts 87°
2026-05-04 18:49 41.40483 -95.50898 32670 ft 546 kts 87°
2026-05-04 18:50 41.40741 -95.40777 32675 ft 546 kts 88°
2026-05-04 18:50 41.40990 -95.30662 32665 ft 546 kts 88°
2026-05-04 18:51 41.41228 -95.20609 32661 ft 546 kts 88°
2026-05-04 18:51 41.41458 -95.10501 32678 ft 546 kts 88°
2026-05-04 18:52 41.41681 -95.00386 32663 ft 546 kts 88°
2026-05-04 18:52 41.41893 -94.90267 32662 ft 546 kts 88°
2026-05-04 18:53 41.42098 -94.80151 32663 ft 546 kts 88°
2026-05-04 18:53 41.42294 -94.70020 32654 ft 546 kts 88°
2026-05-04 18:54 41.42481 -94.59883 32640 ft 547 kts 88°
2026-05-04 18:54 41.42659 -94.49748 32640 ft 547 kts 88°
2026-05-04 18:55 41.42826 -94.39663 32635 ft 547 kts 88°
2026-05-04 18:55 41.43064 -94.24467 32632 ft 547 kts 88°
2026-05-04 18:56 41.43211 -94.14319 32629 ft 546 kts 88°
2026-05-04 18:56 41.43347 -94.04252 32634 ft 546 kts 88°
2026-05-04 18:57 41.43477 -93.94116 32637 ft 546 kts 88°
2026-05-04 18:57 41.43597 -93.83991 32642 ft 546 kts 88°
2026-05-04 18:58 41.43709 -93.73880 32642 ft 546 kts 89°
2026-05-04 18:58 41.43884 -93.63757 32651 ft 545 kts 85°
2026-05-04 18:59 41.44781 -93.53745 32646 ft 544 kts 81°
2026-05-04 18:59 41.45807 -93.43815 32637 ft 544 kts 81°
2026-05-04 19:00 41.46809 -93.33808 32628 ft 544 kts 81°
2026-05-04 19:00 41.47770 -93.23771 32632 ft 544 kts 82°
2026-05-04 19:01 41.48706 -93.13760 32648 ft 544 kts 82°
2026-05-04 19:01 41.49635 -93.03744 32650 ft 544 kts 82°
2026-05-04 19:02 41.50558 -92.93720 32646 ft 544 kts 82°
2026-05-04 19:02 41.51468 -92.83760 32645 ft 544 kts 82°
2026-05-04 19:03 41.52378 -92.73713 32633 ft 545 kts 82°
2026-05-04 19:03 41.53276 -92.63681 32639 ft 544 kts 82°
2026-05-04 19:04 41.54166 -92.53646 32625 ft 544 kts 82°
2026-05-04 19:04 41.55047 -92.43605 32620 ft 544 kts 82°
2026-05-04 19:05 41.55915 -92.33614 32610 ft 544 kts 82°
2026-05-04 19:05 41.56778 -92.23583 32606 ft 544 kts 82°
2026-05-04 19:06 41.57632 -92.13543 32602 ft 544 kts 82°
2026-05-04 19:06 41.58479 -92.03486 32599 ft 544 kts 83°
2026-05-04 19:07 41.59317 -91.93436 32624 ft 544 kts 83°
2026-05-04 19:07 41.60146 -91.83384 32630 ft 544 kts 83°
2026-05-04 19:08 41.60965 -91.73330 32633 ft 544 kts 83°
2026-05-04 19:08 41.61775 -91.63284 32643 ft 543 kts 83°
2026-05-04 19:09 41.62576 -91.53239 32636 ft 543 kts 83°
2026-05-04 19:09 41.63369 -91.43188 32639 ft 543 kts 83°
2026-05-04 19:10 41.64146 -91.33218 32628 ft 543 kts 83°
2026-05-04 19:10 41.64920 -91.23182 32622 ft 542 kts 83°
2026-05-04 19:11 41.65685 -91.13135 32614 ft 542 kts 83°
2026-05-04 19:11 41.66441 -91.03108 32609 ft 542 kts 84°
2026-05-04 19:12 41.67559 -90.88043 32612 ft 542 kts 84°
2026-05-04 19:13 41.68287 -90.78074 32629 ft 543 kts 84°
2026-05-04 19:13 41.68652 -90.73035 32803 ft 543 kts 84°
2026-05-04 19:13 41.68893 -90.69692 32986 ft 543 kts 84°
2026-05-04 19:13 41.69253 -90.64679 33281 ft 541 kts 84°
2026-05-04 19:14 41.69609 -90.59678 33551 ft 540 kts 84°
2026-05-04 19:14 41.69964 -90.54667 33758 ft 540 kts 84°
2026-05-04 19:14 41.70316 -90.49658 33930 ft 540 kts 84°
2026-05-04 19:14 41.70666 -90.44657 34098 ft 541 kts 84°
2026-05-04 19:15 41.71014 -90.39649 34261 ft 541 kts 84°
2026-05-04 19:15 41.71361 -90.34631 34427 ft 541 kts 84°
2026-05-04 19:15 41.71817 -90.27982 34550 ft 543 kts 84°
2026-05-04 19:16 41.72388 -90.19555 34611 ft 541 kts 84°
2026-05-04 19:16 41.73059 -90.09543 34606 ft 538 kts 84°
2026-05-04 19:17 41.73720 -89.99563 34610 ft 537 kts 84°
2026-05-04 19:17 41.74369 -89.89613 34616 ft 537 kts 84°
2026-05-04 19:18 41.75008 -89.79697 34619 ft 537 kts 84°
2026-05-04 19:18 41.75643 -89.69717 34623 ft 538 kts 84°
2026-05-04 19:19 41.76270 -89.59710 34622 ft 539 kts 84°
2026-05-04 19:19 41.76888 -89.49700 34614 ft 539 kts 84°
2026-05-04 19:20 41.77498 -89.39684 34612 ft 540 kts 84°
2026-05-04 19:20 41.78101 -89.29643 34620 ft 540 kts 85°
2026-05-04 19:21 41.78690 -89.19676 34624 ft 540 kts 85°
2026-05-04 19:21 41.79275 -89.09643 34628 ft 540 kts 85°
2026-05-04 19:22 41.79852 -88.99599 34630 ft 540 kts 85°
2026-05-04 19:22 41.80419 -88.89552 34620 ft 540 kts 85°
2026-05-04 19:23 41.80975 -88.79567 34633 ft 539 kts 85°
2026-05-04 19:23 41.81524 -88.69545 34633 ft 539 kts 85°
2026-05-04 19:24 41.82064 -88.59505 34624 ft 539 kts 85°
2026-05-04 19:24 41.82596 -88.49465 34627 ft 539 kts 85°
2026-05-04 19:25 41.83118 -88.39453 34626 ft 538 kts 85°
2026-05-04 19:25 41.83631 -88.29436 34629 ft 538 kts 85°
2026-05-04 19:26 41.84132 -88.19499 34632 ft 538 kts 85°
2026-05-04 19:26 41.84628 -88.09473 34624 ft 538 kts 85°
2026-05-04 19:27 41.85115 -87.99464 34621 ft 538 kts 85°
2026-05-04 19:27 41.85593 -87.89444 34619 ft 538 kts 85°
2026-05-04 19:28 41.86064 -87.79405 34625 ft 538 kts 86°
2026-05-04 19:28 41.86521 -87.69443 34632 ft 538 kts 86°
2026-05-04 19:29 41.86974 -87.59418 34627 ft 538 kts 86°
2026-05-04 19:29 41.87418 -87.49385 34622 ft 538 kts 86°
2026-05-04 19:30 41.87852 -87.39370 34621 ft 538 kts 86°
2026-05-04 19:30 41.88278 -87.29341 34629 ft 538 kts 86°
2026-05-04 19:31 41.88695 -87.19312 34624 ft 538 kts 86°
2026-05-04 19:31 41.89103 -87.09301 34630 ft 538 kts 86°
2026-05-04 19:32 41.89503 -86.99279 34644 ft 538 kts 86°
2026-05-04 19:32 41.89891 -86.89311 34647 ft 538 kts 86°
2026-05-04 19:33 41.90273 -86.79291 34649 ft 538 kts 86°
2026-05-04 19:33 41.90648 -86.69246 34647 ft 538 kts 86°
2026-05-04 19:34 41.91012 -86.59221 34657 ft 538 kts 86°
2026-05-04 19:34 41.91369 -86.49181 34658 ft 538 kts 86°
2026-05-04 19:35 41.91714 -86.39213 34661 ft 538 kts 86°
2026-05-04 19:35 41.92052 -86.29184 34663 ft 538 kts 86°
2026-05-04 19:36 41.92382 -86.19143 34667 ft 538 kts 86°
2026-05-04 19:36 41.92704 -86.09103 34656 ft 538 kts 87°
2026-05-04 19:37 41.93016 -85.99074 34655 ft 538 kts 87°
2026-05-04 19:37 41.93320 -85.89043 34662 ft 538 kts 87°
2026-05-04 19:38 41.93614 -85.79008 34657 ft 538 kts 87°
2026-05-04 19:38 41.93901 -85.68962 34670 ft 538 kts 87°
2026-05-04 19:39 41.94179 -85.58907 34657 ft 538 kts 87°
2026-05-04 19:39 41.94446 -85.48918 34669 ft 538 kts 87°
2026-05-04 19:40 41.94706 -85.38886 34689 ft 538 kts 87°
2026-05-04 19:40 41.94959 -85.28831 34675 ft 538 kts 87°
2026-05-04 19:41 41.95169 -85.18790 34676 ft 538 kts 88°
2026-05-04 19:41 41.95143 -85.08717 34672 ft 538 kts 90°
2026-05-04 19:42 41.95051 -84.98655 34680 ft 538 kts 90°
2026-05-04 19:42 41.94982 -84.88591 34678 ft 538 kts 89°
2026-05-04 19:43 41.94931 -84.78530 34689 ft 538 kts 89°
2026-05-04 19:43 41.94876 -84.68525 34690 ft 539 kts 89°
2026-05-04 19:44 41.94809 -84.58452 34700 ft 539 kts 89°
2026-05-04 19:44 41.94730 -84.48399 34691 ft 539 kts 90°
2026-05-04 19:45 41.94643 -84.38325 34694 ft 539 kts 90°
2026-05-04 19:45 41.94548 -84.28264 34709 ft 539 kts 90°
2026-05-04 19:46 41.94444 -84.18205 34708 ft 539 kts 90°
2026-05-04 19:46 41.94330 -84.08135 34713 ft 539 kts 90°
2026-05-04 19:47 41.94209 -83.98070 34712 ft 539 kts 90°
2026-05-04 19:47 41.94078 -83.87978 34705 ft 539 kts 90°
2026-05-04 19:48 41.93939 -83.77973 34691 ft 540 kts 90°
2026-05-04 19:48 41.93791 -83.67886 34686 ft 540 kts 90°
2026-05-04 19:49 41.93634 -83.57800 34690 ft 540 kts 90°
2026-05-04 19:49 41.93480 -83.48208 34697 ft 540 kts 90°
2026-05-04 19:50 41.93413 -83.38116 34692 ft 540 kts 89°
2026-05-04 19:50 41.93397 -83.28107 34691 ft 540 kts 89°
2026-05-04 19:51 41.93362 -83.18022 34691 ft 539 kts 89°
2026-05-04 19:51 41.93303 -83.07958 34692 ft 539 kts 89°
2026-05-04 19:52 41.93229 -82.97878 34688 ft 539 kts 89°
2026-05-04 19:52 41.93148 -82.87807 34693 ft 539 kts 89°
2026-05-04 19:53 41.93060 -82.77730 34700 ft 539 kts 89°
2026-05-04 19:53 41.92963 -82.67653 34708 ft 539 kts 89°
2026-05-04 19:54 41.92857 -82.57659 34710 ft 539 kts 89°
2026-05-04 19:54 41.92743 -82.47586 34715 ft 539 kts 89°
2026-05-04 19:55 41.92619 -82.37511 34717 ft 539 kts 89°
2026-05-04 19:55 41.92487 -82.27453 34717 ft 539 kts 89°
2026-05-04 19:56 41.92346 -82.17386 34713 ft 539 kts 89°
2026-05-04 19:56 41.92197 -82.07400 34713 ft 538 kts 89°
2026-05-04 19:57 41.92039 -81.97346 34719 ft 538 kts 89°
2026-05-04 19:57 41.91873 -81.87297 34722 ft 538 kts 90°
2026-05-04 19:58 41.91386 -81.77260 34723 ft 539 kts 95°
2026-05-04 19:58 41.90461 -81.67269 34736 ft 539 kts 96°
2026-05-04 19:59 41.89513 -81.57279 34738 ft 539 kts 96°
2026-05-04 19:59 41.88596 -81.47284 34745 ft 539 kts 96°
2026-05-04 20:00 41.87689 -81.37296 34746 ft 539 kts 96°
2026-05-04 20:00 41.86775 -81.27316 34744 ft 539 kts 96°
2026-05-04 20:01 41.85853 -81.17388 34743 ft 539 kts 96°
2026-05-04 20:01 41.84916 -81.07405 34742 ft 539 kts 96°
2026-05-04 20:02 41.84130 -80.99105 34753 ft 539 kts 96°
2026-05-04 20:02 41.83178 -80.89126 34754 ft 539 kts 96°
2026-05-04 20:03 41.82218 -80.79163 34764 ft 538 kts 96°
2026-05-04 20:03 41.81249 -80.69200 34760 ft 538 kts 96°
2026-05-04 20:04 41.80281 -80.59312 34757 ft 537 kts 96°
2026-05-04 20:04 41.79294 -80.49381 34755 ft 537 kts 96°
2026-05-04 20:05 41.78297 -80.39470 34777 ft 536 kts 96°
2026-05-04 20:05 41.77295 -80.29576 34785 ft 535 kts 96°
2026-05-04 20:06 41.76288 -80.19702 34785 ft 535 kts 96°
2026-05-04 20:06 41.75272 -80.09835 34782 ft 535 kts 96°
2026-05-04 20:07 41.74249 -79.99984 34788 ft 534 kts 96°
2026-05-04 20:07 41.73222 -79.90180 34793 ft 534 kts 96°
2026-05-04 20:08 41.72182 -79.80329 34797 ft 534 kts 96°
2026-05-04 20:08 41.71134 -79.70483 34804 ft 534 kts 96°
2026-05-04 20:09 41.70076 -79.60636 34811 ft 534 kts 96°
2026-05-04 20:09 41.69009 -79.50781 34811 ft 534 kts 96°
2026-05-04 20:10 41.67935 -79.40940 34820 ft 534 kts 97°
2026-05-04 20:10 41.66853 -79.31097 34811 ft 534 kts 97°
2026-05-04 20:11 41.65771 -79.21330 34817 ft 534 kts 97°
2026-05-04 20:11 41.64674 -79.11506 34819 ft 534 kts 97°
2026-05-04 20:12 41.63573 -79.01686 34819 ft 534 kts 97°
2026-05-04 20:12 41.62465 -78.91873 34820 ft 533 kts 97°
2026-05-04 20:13 41.61349 -78.82069 34819 ft 533 kts 97°
2026-05-04 20:13 41.60227 -78.72286 34808 ft 533 kts 97°
2026-05-04 20:14 41.59095 -78.62496 34823 ft 532 kts 97°
2026-05-04 20:14 41.57964 -78.52790 34821 ft 532 kts 97°
2026-05-04 20:15 41.56817 -78.43020 34823 ft 532 kts 97°
2026-05-04 20:15 41.55662 -78.33255 34831 ft 532 kts 97°
2026-05-04 20:16 41.54499 -78.23494 34841 ft 531 kts 97°
2026-05-04 20:16 41.53330 -78.13753 34832 ft 532 kts 97°
2026-05-04 20:17 41.52150 -78.03990 34837 ft 532 kts 97°
2026-05-04 20:17 41.50953 -77.94258 34819 ft 531 kts 97°
2026-05-04 20:18 41.49604 -77.84624 34839 ft 531 kts 98°
2026-05-04 20:18 41.48193 -77.74950 34830 ft 531 kts 98°
2026-05-04 20:19 41.46792 -77.65267 34820 ft 531 kts 98°
2026-05-04 20:19 41.45399 -77.55588 34822 ft 532 kts 98°
2026-05-04 20:20 41.44000 -77.45891 34827 ft 532 kts 98°
2026-05-04 20:20 41.42596 -77.36253 34824 ft 532 kts 98°
2026-05-04 20:21 41.41178 -77.26567 34816 ft 532 kts 98°
2026-05-04 20:21 41.39038 -77.12071 34811 ft 532 kts 98°
2026-05-04 20:22 41.37604 -77.02424 34819 ft 531 kts 98°
2026-05-04 20:22 41.36170 -76.92843 34812 ft 531 kts 98°
2026-05-04 20:23 41.34712 -76.83145 34808 ft 531 kts 98°
2026-05-04 20:23 41.32944 -76.73636 34817 ft 534 kts 107°
2026-05-04 20:24 41.30432 -76.64371 34829 ft 528 kts 108°
2026-05-04 20:24 41.29166 -76.59812 34506 ft 522 kts 108°
2026-05-04 20:24 41.27915 -76.55251 33637 ft 525 kts 107°
2026-05-04 20:25 41.26678 -76.50688 32757 ft 525 kts 108°
2026-05-04 20:25 41.25452 -76.46131 31905 ft 524 kts 108°
2026-05-04 20:25 41.24227 -76.41569 31024 ft 524 kts 108°
2026-05-04 20:25 41.22997 -76.36997 30142 ft 526 kts 108°
2026-05-04 20:26 41.21766 -76.32438 29514 ft 520 kts 109°
2026-05-04 20:26 41.20564 -76.28000 28907 ft 514 kts 109°
2026-05-04 20:26 41.19358 -76.23555 28347 ft 508 kts 109°
2026-05-04 20:26 41.18163 -76.19163 27782 ft 502 kts 109°
2026-05-04 20:27 41.16978 -76.14816 27234 ft 497 kts 109°
2026-05-04 20:27 41.15807 -76.10525 26680 ft 492 kts 109°
2026-05-04 20:27 41.14646 -76.06278 26124 ft 487 kts 109°
2026-05-04 20:27 41.13491 -76.02064 25580 ft 484 kts 109°
2026-05-04 20:28 41.12342 -75.97884 25060 ft 480 kts 109°
2026-05-04 20:28 41.11202 -75.93739 24526 ft 477 kts 109°
2026-05-04 20:28 41.10081 -75.89672 24021 ft 474 kts 110°
2026-05-04 20:28 41.08950 -75.85570 23468 ft 472 kts 109°
2026-05-04 20:29 41.07826 -75.81500 22850 ft 469 kts 110°
2026-05-04 20:29 41.06706 -75.77453 22281 ft 466 kts 110°
2026-05-04 20:29 41.05595 -75.73443 21740 ft 462 kts 110°
2026-05-04 20:29 41.04491 -75.69465 21214 ft 458 kts 110°
2026-05-04 20:30 41.03391 -75.65505 20688 ft 455 kts 110°
2026-05-04 20:30 41.02300 -75.61584 20162 ft 451 kts 110°
2026-05-04 20:30 41.01216 -75.57695 19677 ft 448 kts 110°
2026-05-04 20:30 41.00139 -75.53838 19168 ft 445 kts 111°
2026-05-04 20:31 40.99068 -75.50010 18710 ft 441 kts 111°
2026-05-04 20:31 40.98006 -75.46221 18217 ft 438 kts 111°
2026-05-04 20:31 40.96950 -75.42454 17667 ft 436 kts 111°
2026-05-04 20:31 40.95912 -75.38757 17137 ft 433 kts 111°
2026-05-04 20:32 40.94865 -75.35031 16625 ft 429 kts 111°
2026-05-04 20:32 40.93826 -75.31342 16129 ft 426 kts 111°
2026-05-04 20:32 40.92797 -75.27689 15627 ft 423 kts 111°
2026-05-04 20:32 40.91772 -75.24058 15137 ft 420 kts 111°
2026-05-04 20:33 40.90748 -75.20432 14623 ft 417 kts 111°
2026-05-04 20:33 40.89736 -75.16852 14161 ft 415 kts 111°
2026-05-04 20:33 40.88728 -75.13296 13664 ft 412 kts 111°
2026-05-04 20:33 40.87727 -75.09769 13218 ft 407 kts 111°
2026-05-04 20:34 40.86744 -75.06286 12933 ft 399 kts 111°
2026-05-04 20:34 40.85815 -75.02993 12404 ft 377 kts 111°
2026-05-04 20:34 40.84918 -74.99811 11630 ft 364 kts 111°
2026-05-04 20:34 40.84048 -74.96737 10891 ft 351 kts 112°
2026-05-04 20:35 40.83203 -74.93757 10200 ft 341 kts 112°
2026-05-04 20:35 40.82451 -74.90866 9697 ft 325 kts 103°
2026-05-04 20:35 40.82241 -74.87980 9257 ft 308 kts 89°
2026-05-04 20:35 40.82299 -74.85189 8855 ft 302 kts 88°
2026-05-04 20:36 40.82370 -74.82446 8688 ft 296 kts 88°
2026-05-04 20:36 40.82442 -74.79734 8427 ft 294 kts 89°
2026-05-04 20:36 40.82502 -74.77048 8132 ft 293 kts 89°
2026-05-04 20:36 40.82562 -74.74369 7858 ft 290 kts 89°
2026-05-04 20:37 40.82618 -74.71741 7699 ft 283 kts 89°
2026-05-04 20:37 40.82670 -74.69162 7510 ft 279 kts 89°
2026-05-04 20:37 40.82718 -74.66603 7234 ft 278 kts 89°
2026-05-04 20:37 40.82767 -74.64064 6949 ft 275 kts 90°
2026-05-04 20:38 40.82815 -74.61558 6754 ft 270 kts 90°
2026-05-04 20:38 40.82860 -74.59138 6596 ft 266 kts 90°
2026-05-04 20:38 40.82905 -74.56715 6388 ft 261 kts 90°
2026-05-04 20:38 40.82945 -74.54314 6092 ft 261 kts 90°
2026-05-04 20:39 40.82985 -74.51948 5900 ft 253 kts 90°
2026-05-04 20:39 40.83027 -74.49637 5639 ft 251 kts 90°
2026-05-04 20:39 40.83066 -74.47391 5583 ft 237 kts 90°
2026-05-04 20:39 40.83103 -74.45231 5573 ft 238 kts 90°
2026-05-04 20:40 40.83137 -74.42966 5630 ft 253 kts 90°
2026-05-04 20:40 40.83175 -74.40670 5630 ft 252 kts 90°
2026-05-04 20:40 40.83214 -74.38361 5601 ft 245 kts 90°
2026-05-04 20:40 40.83249 -74.36142 5584 ft 240 kts 90°
2026-05-04 20:41 40.83282 -74.33964 5580 ft 242 kts 90°
2026-05-04 20:41 40.83318 -74.31706 5328 ft 249 kts 90°
2026-05-04 20:41 40.83353 -74.29419 5081 ft 249 kts 90°